Year,Month,Day,Hour,Minute,Value (Times are PST for windgust in km/hr)
2023,11,09,00,00,9.60
2023,11,09,00,01,17.70
2023,11,09,00,02,24.20
2023,11,09,00,03,12.90
2023,11,09,00,04,8.10
2023,11,09,00,05,14.50
2023,11,09,00,06,14.50
2023,11,09,00,07,11.30
2023,11,09,00,08,11.30
2023,11,09,00,09,8.10
2023,11,09,00,10,16.10
2023,11,09,00,11,20.90
2023,11,09,00,12,12.90
2023,11,09,00,13,12.90
2023,11,09,00,14,9.60
2023,11,09,00,15,14.50
2023,11,09,00,16,17.70
2023,11,09,00,17,14.50
2023,11,09,00,18,14.50
2023,11,09,00,19,14.50
2023,11,09,00,20,12.90
2023,11,09,00,21,17.70
2023,11,09,00,22,17.70
2023,11,09,00,23,17.70
2023,11,09,00,24,14.50
2023,11,09,00,25,17.70
2023,11,09,00,26,22.50
2023,11,09,00,27,19.30
2023,11,09,00,28,14.50
2023,11,09,00,29,20.90
2023,11,09,00,30,16.10
2023,11,09,00,31,16.10
2023,11,09,00,32,29.00
2023,11,09,00,33,20.90
2023,11,09,00,34,24.20
2023,11,09,00,35,11.30
2023,11,09,00,36,25.70
2023,11,09,00,37,25.70
2023,11,09,00,38,17.70
2023,11,09,00,39,16.10
2023,11,09,00,40,22.50
2023,11,09,00,41,22.50
2023,11,09,00,42,22.50
2023,11,09,00,43,17.70
2023,11,09,00,44,30.60
2023,11,09,00,45,25.70
2023,11,09,00,46,27.40
2023,11,09,00,47,19.30
2023,11,09,00,48,27.40
2023,11,09,00,49,20.90
2023,11,09,00,50,19.30
2023,11,09,00,51,16.10
2023,11,09,00,52,25.70
2023,11,09,00,53,19.30
2023,11,09,00,54,24.20
2023,11,09,00,55,24.20
2023,11,09,00,56,12.90
2023,11,09,00,57,20.90
2023,11,09,00,58,12.90
2023,11,09,00,59,19.30
2023,11,09,01,00,14.50
2023,11,09,01,01,22.50
2023,11,09,01,02,16.10
2023,11,09,01,03,20.90
2023,11,09,01,04,16.10
2023,11,09,01,05,19.30
2023,11,09,01,06,19.30
2023,11,09,01,07,17.70
2023,11,09,01,08,17.70
2023,11,09,01,09,25.70
2023,11,09,01,10,16.10
2023,11,09,01,11,22.50
2023,11,09,01,12,16.10
2023,11,09,01,13,16.10
2023,11,09,01,14,24.20
2023,11,09,01,15,19.30
2023,11,09,01,16,19.30
2023,11,09,01,17,40.20
2023,11,09,01,18,16.10
2023,11,09,01,19,19.30
2023,11,09,01,20,16.10
2023,11,09,01,21,19.30
2023,11,09,01,22,22.50
2023,11,09,01,23,19.30
2023,11,09,01,24,16.10
2023,11,09,01,25,20.90
2023,11,09,01,26,20.90
2023,11,09,01,27,17.70
2023,11,09,01,28,20.90
2023,11,09,01,29,17.70
2023,11,09,01,30,20.90
2023,11,09,01,31,12.90
2023,11,09,01,32,9.60
2023,11,09,01,33,16.10
2023,11,09,01,34,19.30
2023,11,09,01,35,20.90
2023,11,09,01,36,9.60
2023,11,09,01,37,16.10
2023,11,09,01,38,12.90
2023,11,09,01,39,12.90
2023,11,09,01,40,12.90
2023,11,09,01,41,14.50
2023,11,09,01,42,16.10
2023,11,09,01,43,12.90
2023,11,09,01,44,16.10
2023,11,09,01,45,14.50
2023,11,09,01,46,17.70
2023,11,09,01,47,12.90
2023,11,09,01,48,14.50
2023,11,09,01,49,12.90
2023,11,09,01,50,16.10
2023,11,09,01,51,22.50
2023,11,09,01,52,12.90
2023,11,09,01,53,12.90
2023,11,09,01,54,19.30
2023,11,09,01,55,16.10
2023,11,09,01,56,14.50
2023,11,09,01,57,17.70
2023,11,09,01,58,24.20
2023,11,09,01,59,14.50
2023,11,09,02,00,8.10
2023,11,09,02,01,11.30
2023,11,09,02,02,16.10
2023,11,09,02,03,19.30
2023,11,09,02,04,9.60
2023,11,09,02,05,17.70
2023,11,09,02,06,16.10
2023,11,09,02,07,29.00
2023,11,09,02,08,12.90
2023,11,09,02,09,11.30
2023,11,09,02,10,14.50
2023,11,09,02,11,22.50
2023,11,09,02,12,27.40
2023,11,09,02,13,16.10
2023,11,09,02,14,30.60
2023,11,09,02,15,33.80
2023,11,09,02,16,33.80
2023,11,09,02,17,25.70
2023,11,09,02,18,32.20
2023,11,09,02,19,25.70
2023,11,09,02,20,27.40
2023,11,09,02,21,24.20
2023,11,09,02,22,20.90
2023,11,09,02,23,20.90
2023,11,09,02,24,16.10
2023,11,09,02,25,24.20
2023,11,09,02,26,30.60
2023,11,09,02,27,29.00
2023,11,09,02,28,22.50
2023,11,09,02,29,25.70
2023,11,09,02,30,17.70
2023,11,09,02,31,19.30
2023,11,09,02,32,29.00
2023,11,09,02,33,27.40
2023,11,09,02,34,22.50
2023,11,09,02,35,30.60
2023,11,09,02,36,14.50
2023,11,09,02,37,30.60
2023,11,09,02,38,22.50
2023,11,09,02,39,17.70
2023,11,09,02,40,35.40
2023,11,09,02,41,20.90
2023,11,09,02,42,29.00
2023,11,09,02,43,27.40
2023,11,09,02,44,25.70
2023,11,09,02,45,19.30
2023,11,09,02,46,19.30
2023,11,09,02,47,17.70
2023,11,09,02,48,30.60
2023,11,09,02,49,48.30
2023,11,09,02,50,20.90
2023,11,09,02,51,29.00
2023,11,09,02,52,27.40
2023,11,09,02,53,25.70
2023,11,09,02,54,27.40
2023,11,09,02,55,9.60
2023,11,09,02,56,27.40
2023,11,09,02,57,25.70
2023,11,09,02,58,24.20
2023,11,09,02,59,27.40
2023,11,09,03,00,20.90
2023,11,09,03,01,19.30
2023,11,09,03,02,20.90
2023,11,09,03,03,22.50
2023,11,09,03,04,22.50
2023,11,09,03,05,35.40
2023,11,09,03,06,20.90
2023,11,09,03,07,12.90
2023,11,09,03,08,25.70
2023,11,09,03,09,22.50
2023,11,09,03,10,22.50
2023,11,09,03,11,17.70
2023,11,09,03,12,16.10
2023,11,09,03,13,27.40
2023,11,09,03,14,22.50
2023,11,09,03,15,22.50
2023,11,09,03,16,20.90
2023,11,09,03,17,33.80
2023,11,09,03,18,43.50
2023,11,09,03,19,24.20
2023,11,09,03,20,29.00
2023,11,09,03,21,27.40
2023,11,09,03,22,24.20
2023,11,09,03,23,25.70
2023,11,09,03,24,29.00
2023,11,09,03,25,24.20
2023,11,09,03,26,14.50
2023,11,09,03,27,22.50
2023,11,09,03,28,29.00
2023,11,09,03,29,17.70
2023,11,09,03,30,27.40
2023,11,09,03,31,27.40
2023,11,09,03,32,20.90
2023,11,09,03,33,14.50
2023,11,09,03,34,17.70
2023,11,09,03,35,25.70
2023,11,09,03,36,29.00
2023,11,09,03,37,16.10
2023,11,09,03,38,29.00
2023,11,09,03,39,20.90
2023,11,09,03,40,29.00
2023,11,09,03,41,24.20
2023,11,09,03,42,25.70
2023,11,09,03,43,22.50
2023,11,09,03,44,17.70
2023,11,09,03,45,14.50
2023,11,09,03,46,17.70
2023,11,09,03,47,25.70
2023,11,09,03,48,19.30
2023,11,09,03,49,17.70
2023,11,09,03,50,22.50
2023,11,09,03,51,27.40
2023,11,09,03,52,14.50
2023,11,09,03,53,17.70
2023,11,09,03,54,17.70
2023,11,09,03,55,27.40
2023,11,09,03,56,14.50
2023,11,09,03,57,14.50
2023,11,09,03,58,16.10
2023,11,09,03,59,20.90
2023,11,09,04,00,27.40
2023,11,09,04,01,20.90
2023,11,09,04,02,12.90
2023,11,09,04,03,17.70
2023,11,09,04,04,17.70
2023,11,09,04,05,20.90
2023,11,09,04,06,17.70
2023,11,09,04,07,17.70
2023,11,09,04,08,24.20
2023,11,09,04,09,24.20
2023,11,09,04,10,12.90
2023,11,09,04,11,8.10
2023,11,09,04,12,16.10
2023,11,09,04,13,14.50
2023,11,09,04,14,19.30
2023,11,09,04,15,11.30
2023,11,09,04,16,14.50
2023,11,09,04,17,22.50
2023,11,09,04,18,17.70
2023,11,09,04,19,16.10
2023,11,09,04,20,16.10
2023,11,09,04,21,17.70
2023,11,09,04,22,17.70
2023,11,09,04,23,12.90
2023,11,09,04,24,16.10
2023,11,09,04,25,27.40
2023,11,09,04,26,22.50
2023,11,09,04,27,19.30
2023,11,09,04,28,22.50
2023,11,09,04,29,22.50
2023,11,09,04,30,12.90
2023,11,09,04,31,12.90
2023,11,09,04,32,14.50
2023,11,09,04,33,14.50
2023,11,09,04,34,12.90
2023,11,09,04,35,14.50
2023,11,09,04,36,16.10
2023,11,09,04,37,16.10
2023,11,09,04,38,14.50
2023,11,09,04,39,17.70
2023,11,09,04,40,11.30
2023,11,09,04,41,20.90
2023,11,09,04,42,24.20
2023,11,09,04,43,22.50
2023,11,09,04,44,17.70
2023,11,09,04,45,17.70
2023,11,09,04,46,19.30
2023,11,09,04,47,14.50
2023,11,09,04,48,22.50
2023,11,09,04,49,29.00
2023,11,09,04,50,9.60
2023,11,09,04,51,12.90
2023,11,09,04,52,14.50
2023,11,09,04,53,12.90
2023,11,09,04,54,9.60
2023,11,09,04,55,12.90
2023,11,09,04,56,9.60
2023,11,09,04,57,8.10
2023,11,09,04,58,9.60
2023,11,09,04,59,8.10
2023,11,09,05,00,17.70
2023,11,09,05,01,17.70
2023,11,09,05,02,14.50
2023,11,09,05,03,19.30
2023,11,09,05,04,20.90
2023,11,09,05,05,14.50
2023,11,09,05,06,12.90
2023,11,09,05,07,9.60
2023,11,09,05,08,16.10
2023,11,09,05,09,11.30
2023,11,09,05,10,19.30
2023,11,09,05,11,11.30
2023,11,09,05,12,12.90
2023,11,09,05,13,20.90
2023,11,09,05,14,12.90
2023,11,09,05,15,20.90
2023,11,09,05,16,11.30
2023,11,09,05,17,14.50
2023,11,09,05,18,14.50
2023,11,09,05,19,14.50
2023,11,09,05,20,25.70
2023,11,09,05,21,17.70
2023,11,09,05,22,16.10
2023,11,09,05,23,20.90
2023,11,09,05,24,14.50
2023,11,09,05,25,14.50
2023,11,09,05,26,20.90
2023,11,09,05,27,14.50
2023,11,09,05,28,12.90
2023,11,09,05,29,27.40
2023,11,09,05,30,17.70
2023,11,09,05,31,14.50
2023,11,09,05,32,11.30
2023,11,09,05,33,11.30
2023,11,09,05,34,12.90
2023,11,09,05,35,20.90
2023,11,09,05,36,22.50
2023,11,09,05,37,16.10
2023,11,09,05,38,14.50
2023,11,09,05,39,19.30
2023,11,09,05,40,11.30
2023,11,09,05,41,25.70
2023,11,09,05,42,20.90
2023,11,09,05,43,20.90
2023,11,09,05,44,19.30
2023,11,09,05,45,22.50
2023,11,09,05,46,27.40
2023,11,09,05,47,27.40
2023,11,09,05,48,12.90
2023,11,09,05,49,27.40
2023,11,09,05,50,30.60
2023,11,09,05,51,19.30
2023,11,09,05,52,16.10
2023,11,09,05,53,16.10
2023,11,09,05,54,25.70
2023,11,09,05,55,29.00
2023,11,09,05,56,30.60
2023,11,09,05,57,19.30
2023,11,09,05,58,24.20
2023,11,09,05,59,12.90
2023,11,09,06,00,16.10
2023,11,09,06,01,25.70
2023,11,09,06,02,20.90
2023,11,09,06,03,22.50
2023,11,09,06,04,16.10
2023,11,09,06,05,14.50
2023,11,09,06,06,27.40
2023,11,09,06,07,24.20
2023,11,09,06,08,12.90
2023,11,09,06,09,25.70
2023,11,09,06,10,16.10
2023,11,09,06,11,16.10
2023,11,09,06,12,33.80
2023,11,09,06,13,17.70
2023,11,09,06,14,40.20
2023,11,09,06,15,11.30
2023,11,09,06,16,11.30
2023,11,09,06,17,25.70
2023,11,09,06,18,14.50
2023,11,09,06,19,14.50
2023,11,09,06,20,12.90
2023,11,09,06,21,22.50
2023,11,09,06,22,16.10
2023,11,09,06,23,17.70
2023,11,09,06,24,14.50
2023,11,09,06,25,11.30
2023,11,09,06,26,19.30
2023,11,09,06,27,16.10
2023,11,09,06,28,24.20
2023,11,09,06,29,19.30
2023,11,09,06,30,12.90
2023,11,09,06,31,12.90
2023,11,09,06,32,11.30
2023,11,09,06,33,19.30
2023,11,09,06,34,24.20
2023,11,09,06,35,25.70
2023,11,09,06,36,20.90
2023,11,09,06,37,6.40
2023,11,09,06,38,17.70
2023,11,09,06,39,14.50
2023,11,09,06,40,24.20
2023,11,09,06,41,16.10
2023,11,09,06,42,16.10
2023,11,09,06,43,24.20
2023,11,09,06,44,19.30
2023,11,09,06,45,14.50
2023,11,09,06,46,33.80
2023,11,09,06,47,24.20
2023,11,09,06,48,19.30
2023,11,09,06,49,17.70
2023,11,09,06,50,20.90
2023,11,09,06,51,22.50
2023,11,09,06,52,20.90
2023,11,09,06,53,25.70
2023,11,09,06,54,22.50
2023,11,09,06,55,29.00
2023,11,09,06,56,19.30
2023,11,09,06,57,37.00
2023,11,09,06,58,19.30
2023,11,09,06,59,14.50
2023,11,09,07,00,24.20
2023,11,09,07,01,16.10
2023,11,09,07,02,16.10
2023,11,09,07,03,14.50
2023,11,09,07,04,12.90
2023,11,09,07,05,12.90
2023,11,09,07,06,17.70
2023,11,09,07,07,16.10
2023,11,09,07,08,12.90
2023,11,09,07,09,19.30
2023,11,09,07,10,16.10
2023,11,09,07,11,12.90
2023,11,09,07,12,12.90
2023,11,09,07,13,9.60
2023,11,09,07,14,9.60
2023,11,09,07,15,11.30
2023,11,09,07,16,8.10
2023,11,09,07,17,9.60
2023,11,09,07,18,8.10
2023,11,09,07,19,12.90
2023,11,09,07,20,6.40
2023,11,09,07,21,6.40
2023,11,09,07,22,8.10
2023,11,09,07,23,11.30
2023,11,09,07,24,12.90
2023,11,09,07,25,16.10
2023,11,09,07,26,16.10
2023,11,09,07,27,16.10
2023,11,09,07,28,8.10
2023,11,09,07,29,16.10
2023,11,09,07,30,19.30
2023,11,09,07,31,17.70
2023,11,09,07,32,32.20
2023,11,09,07,33,24.20
2023,11,09,07,34,22.50
2023,11,09,07,35,17.70
2023,11,09,07,36,22.50
2023,11,09,07,37,17.70
2023,11,09,07,38,14.50
2023,11,09,07,39,30.60
2023,11,09,07,40,20.90
2023,11,09,07,41,24.20
2023,11,09,07,42,19.30
2023,11,09,07,43,16.10
2023,11,09,07,44,25.70
2023,11,09,07,45,12.90
2023,11,09,07,46,29.00
2023,11,09,07,47,19.30
2023,11,09,07,48,20.90
2023,11,09,07,49,37.00
2023,11,09,07,50,35.40
2023,11,09,07,51,24.20
2023,11,09,07,52,25.70
2023,11,09,07,53,24.20
2023,11,09,07,54,22.50
2023,11,09,07,55,25.70
2023,11,09,07,56,19.30
2023,11,09,07,57,19.30
2023,11,09,07,58,37.00
2023,11,09,07,59,19.30
2023,11,09,08,00,22.50
2023,11,09,08,01,12.90
2023,11,09,08,02,22.50
2023,11,09,08,03,22.50
2023,11,09,08,04,27.40
2023,11,09,08,05,30.60
2023,11,09,08,06,17.70
2023,11,09,08,07,12.90
2023,11,09,08,08,12.90
2023,11,09,08,09,27.40
2023,11,09,08,10,20.90
2023,11,09,08,11,38.60
2023,11,09,08,12,20.90
2023,11,09,08,13,17.70
2023,11,09,08,14,29.00
2023,11,09,08,15,12.90
2023,11,09,08,16,12.90
2023,11,09,08,17,27.40
2023,11,09,08,18,24.20
2023,11,09,08,19,12.90
2023,11,09,08,20,16.10
2023,11,09,08,21,25.70
2023,11,09,08,22,14.50
2023,11,09,08,23,12.90
2023,11,09,08,24,16.10
2023,11,09,08,25,19.30
2023,11,09,08,26,14.50
2023,11,09,08,27,12.90
2023,11,09,08,28,25.70
2023,11,09,08,29,29.00
2023,11,09,08,30,24.20
2023,11,09,08,31,12.90
2023,11,09,08,32,24.20
2023,11,09,08,33,32.20
2023,11,09,08,34,20.90
2023,11,09,08,35,22.50
2023,11,09,08,36,17.70
2023,11,09,08,37,16.10
2023,11,09,08,38,27.40
2023,11,09,08,39,29.00
2023,11,09,08,40,24.20
2023,11,09,08,41,19.30
2023,11,09,08,42,17.70
2023,11,09,08,43,12.90
2023,11,09,08,44,29.00
2023,11,09,08,45,12.90
2023,11,09,08,46,17.70
2023,11,09,08,47,17.70
2023,11,09,08,48,24.20
2023,11,09,08,49,19.30
2023,11,09,08,50,14.50
2023,11,09,08,51,22.50
2023,11,09,08,52,22.50
2023,11,09,08,53,22.50
2023,11,09,08,54,20.90
2023,11,09,08,55,19.30
2023,11,09,08,56,22.50
2023,11,09,08,57,29.00
2023,11,09,08,58,20.90
2023,11,09,08,59,20.90
2023,11,09,09,00,14.50
2023,11,09,09,01,24.20
2023,11,09,09,02,22.50
2023,11,09,09,03,27.40
2023,11,09,09,04,22.50
2023,11,09,09,05,19.30
2023,11,09,09,06,20.90
2023,11,09,09,07,12.90
2023,11,09,09,08,14.50
2023,11,09,09,09,14.50
2023,11,09,09,10,14.50
2023,11,09,09,11,9.60
2023,11,09,09,12,17.70
2023,11,09,09,13,12.90
2023,11,09,09,14,19.30
2023,11,09,09,15,12.90
2023,11,09,09,16,12.90
2023,11,09,09,17,17.70
2023,11,09,09,18,19.30
2023,11,09,09,19,12.90
2023,11,09,09,20,11.30
2023,11,09,09,21,14.50
2023,11,09,09,22,12.90
2023,11,09,09,23,9.60
2023,11,09,09,24,12.90
2023,11,09,09,25,17.70
2023,11,09,09,26,14.50
2023,11,09,09,27,4.80
2023,11,09,09,28,25.70
2023,11,09,09,29,11.30
2023,11,09,09,30,9.60
2023,11,09,09,31,14.50
2023,11,09,09,32,14.50
2023,11,09,09,33,12.90
2023,11,09,09,34,16.10
2023,11,09,09,35,6.40
2023,11,09,09,36,14.50
2023,11,09,09,37,8.10
2023,11,09,09,38,16.10
2023,11,09,09,39,11.30
2023,11,09,09,40,11.30
2023,11,09,09,41,6.40
2023,11,09,09,42,8.10
2023,11,09,09,43,8.10
2023,11,09,09,44,11.30
2023,11,09,09,45,12.90
2023,11,09,09,46,16.10
2023,11,09,09,47,14.50
2023,11,09,09,48,14.50
2023,11,09,09,49,14.50
2023,11,09,09,50,16.10
2023,11,09,09,51,9.60
2023,11,09,09,52,6.40
2023,11,09,09,53,11.30
2023,11,09,09,54,9.60
2023,11,09,09,55,6.40
2023,11,09,09,56,14.50
2023,11,09,09,57,6.40
2023,11,09,09,58,8.10
2023,11,09,09,59,4.80
2023,11,09,10,00,4.80
2023,11,09,10,01,9.60
2023,11,09,10,02,12.90
2023,11,09,10,03,8.10
2023,11,09,10,04,8.10
2023,11,09,10,05,6.40
2023,11,09,10,06,4.80
2023,11,09,10,07,6.40
2023,11,09,10,08,4.80
2023,11,09,10,09,4.80
2023,11,09,10,12,8.10
2023,11,09,10,13,12.90
2023,11,09,10,14,6.40
2023,11,09,10,15,4.80
2023,11,09,10,16,8.10
2023,11,09,10,17,3.20
2023,11,09,10,18,6.40
2023,11,09,10,19,8.10
2023,11,09,10,20,12.90
2023,11,09,10,21,17.70
2023,11,09,10,22,8.10
2023,11,09,10,23,11.30
2023,11,09,10,24,16.10
2023,11,09,10,25,11.30
2023,11,09,10,26,8.10
2023,11,09,10,27,8.10
2023,11,09,10,28,11.30
2023,11,09,10,29,6.40
2023,11,09,10,30,8.10
2023,11,09,10,31,8.10
2023,11,09,10,32,9.60
2023,11,09,10,33,9.60
2023,11,09,10,34,14.50
2023,11,09,10,35,6.40
2023,11,09,10,37,9.60
2023,11,09,10,38,14.50
2023,11,09,10,39,9.60
2023,11,09,10,40,9.60
2023,11,09,10,41,1.60
2023,11,09,10,43,14.50
2023,11,09,10,44,16.10
2023,11,09,10,45,1.60
2023,11,09,10,46,9.60
2023,11,09,10,47,12.90
2023,11,09,10,48,3.20
2023,11,09,10,49,3.20
2023,11,09,10,50,4.80
2023,11,09,10,51,3.20
2023,11,09,10,55,8.10
2023,11,09,10,56,8.10
2023,11,09,10,57,4.80
2023,11,09,10,58,8.10
2023,11,09,10,59,3.20
2023,11,09,11,00,4.80
2023,11,09,11,01,4.80
2023,11,09,11,02,4.80
2023,11,09,11,03,1.60
2023,11,09,11,04,4.80
2023,11,09,11,05,8.10
2023,11,09,11,06,8.10
2023,11,09,11,07,1.60
2023,11,09,11,08,6.40
2023,11,09,11,09,9.60
2023,11,09,11,10,11.30
2023,11,09,11,11,4.80
2023,11,09,11,12,12.90
2023,11,09,11,13,14.50
2023,11,09,11,14,16.10
2023,11,09,11,15,8.10
2023,11,09,11,16,4.80
2023,11,09,11,17,16.10
2023,11,09,11,18,16.10
2023,11,09,11,19,11.30
2023,11,09,11,20,12.90
2023,11,09,11,21,16.10
2023,11,09,11,22,19.30
2023,11,09,11,23,22.50
2023,11,09,11,24,17.70
2023,11,09,11,25,14.50
2023,11,09,11,26,16.10
2023,11,09,11,27,17.70
2023,11,09,11,28,11.30
2023,11,09,11,29,14.50
2023,11,09,11,30,16.10
2023,11,09,11,31,12.90
2023,11,09,11,32,12.90
2023,11,09,11,33,17.70
2023,11,09,11,34,14.50
2023,11,09,11,35,17.70
2023,11,09,11,36,19.30
2023,11,09,11,37,12.90
2023,11,09,11,38,9.60
2023,11,09,11,39,8.10
2023,11,09,11,40,11.30
2023,11,09,11,41,16.10
2023,11,09,11,42,11.30
2023,11,09,11,43,14.50
2023,11,09,11,44,12.90
2023,11,09,11,45,12.90
2023,11,09,11,46,11.30
2023,11,09,11,47,9.60
2023,11,09,11,48,11.30
2023,11,09,11,49,12.90
2023,11,09,11,50,11.30
2023,11,09,11,51,8.10
2023,11,09,11,52,8.10
2023,11,09,11,53,16.10
2023,11,09,11,54,9.60
2023,11,09,11,55,8.10
2023,11,09,11,56,11.30
2023,11,09,11,57,12.90
2023,11,09,11,58,8.10
2023,11,09,11,59,8.10
2023,11,09,12,00,6.40
2023,11,09,12,01,6.40
2023,11,09,12,02,9.60
2023,11,09,12,03,6.40
2023,11,09,12,04,6.40
2023,11,09,12,05,4.80
2023,11,09,12,06,4.80
2023,11,09,12,07,8.10
2023,11,09,12,08,8.10
2023,11,09,12,09,12.90
2023,11,09,12,10,3.20
2023,11,09,12,11,4.80
2023,11,09,12,12,6.40
2023,11,09,12,13,6.40
2023,11,09,12,14,6.40
2023,11,09,12,15,9.60
2023,11,09,12,16,11.30
2023,11,09,12,17,6.40
2023,11,09,12,18,6.40
2023,11,09,12,19,9.60
2023,11,09,12,20,8.10
2023,11,09,12,21,4.80
2023,11,09,12,22,12.90
2023,11,09,12,23,6.40
2023,11,09,12,24,3.20
2023,11,09,12,25,6.40
2023,11,09,12,26,4.80
2023,11,09,12,27,1.60
2023,11,09,12,28,1.60
2023,11,09,12,29,6.40
2023,11,09,12,30,11.30
2023,11,09,12,31,4.80
2023,11,09,12,32,11.30
2023,11,09,12,33,8.10
2023,11,09,12,34,6.40
2023,11,09,12,35,4.80
2023,11,09,12,36,8.10
2023,11,09,12,37,11.30
2023,11,09,12,38,8.10
2023,11,09,12,39,6.40
2023,11,09,12,40,19.30
2023,11,09,12,41,8.10
2023,11,09,12,42,12.90
2023,11,09,12,43,14.50
2023,11,09,12,44,4.80
2023,11,09,12,45,9.60
2023,11,09,12,46,9.60
2023,11,09,12,47,9.60
2023,11,09,12,48,8.10
2023,11,09,12,49,11.30
2023,11,09,12,50,9.60
2023,11,09,12,51,11.30
2023,11,09,12,52,9.60
2023,11,09,12,53,12.90
2023,11,09,12,54,4.80
2023,11,09,12,55,4.80
2023,11,09,12,56,6.40
2023,11,09,12,57,4.80
2023,11,09,12,58,8.10
2023,11,09,12,59,9.60
2023,11,09,13,00,9.60
2023,11,09,13,01,6.40
2023,11,09,13,02,9.60
2023,11,09,13,03,4.80
2023,11,09,13,04,6.40
2023,11,09,13,05,8.10
2023,11,09,13,06,8.10
2023,11,09,13,07,6.40
2023,11,09,13,08,8.10
2023,11,09,13,09,3.20
2023,11,09,13,10,11.30
2023,11,09,13,11,3.20
2023,11,09,13,12,4.80
2023,11,09,13,13,4.80
2023,11,09,13,14,1.60
2023,11,09,13,17,3.20
2023,11,09,13,22,1.60
2023,11,09,13,23,3.20
2023,11,09,13,24,8.10
2023,11,09,13,25,8.10
2023,11,09,13,26,1.60
2023,11,09,13,31,4.80
2023,11,09,13,32,4.80
2023,11,09,13,33,4.80
2023,11,09,13,34,3.20
2023,11,09,13,35,3.20
2023,11,09,13,36,1.60
2023,11,09,13,41,3.20
2023,11,09,13,47,1.60
2023,11,09,13,48,4.80
2023,11,09,13,49,8.10
2023,11,09,13,50,1.60
2023,11,09,13,51,6.40
2023,11,09,13,52,4.80
2023,11,09,13,53,6.40
2023,11,09,13,54,9.60
2023,11,09,13,55,4.80
2023,11,09,13,56,4.80
2023,11,09,13,57,4.80
2023,11,09,13,58,6.40
2023,11,09,13,59,9.60
2023,11,09,14,00,8.10
2023,11,09,14,01,6.40
2023,11,09,14,02,6.40
2023,11,09,14,03,8.10
2023,11,09,14,04,4.80
2023,11,09,14,05,6.40
2023,11,09,14,06,6.40
2023,11,09,14,07,9.60
2023,11,09,14,08,8.10
2023,11,09,14,09,9.60
2023,11,09,14,10,11.30
2023,11,09,14,11,16.10
2023,11,09,14,12,9.60
2023,11,09,14,13,8.10
2023,11,09,14,14,12.90
2023,11,09,14,15,6.40
2023,11,09,14,16,8.10
2023,11,09,14,17,8.10
2023,11,09,14,18,11.30
2023,11,09,14,19,11.30
2023,11,09,14,20,6.40
2023,11,09,14,21,12.90
2023,11,09,14,22,4.80
2023,11,09,14,23,11.30
2023,11,09,14,24,9.60
2023,11,09,14,25,9.60
2023,11,09,14,26,9.60
2023,11,09,14,27,8.10
2023,11,09,14,28,8.10
2023,11,09,14,29,9.60
2023,11,09,14,30,9.60
2023,11,09,14,31,8.10
2023,11,09,14,32,6.40
2023,11,09,14,33,4.80
2023,11,09,14,34,4.80
2023,11,09,14,35,4.80
2023,11,09,14,36,9.60
2023,11,09,14,37,6.40
2023,11,09,14,38,11.30
2023,11,09,14,39,8.10
2023,11,09,14,40,9.60
2023,11,09,14,41,8.10
2023,11,09,14,42,8.10
2023,11,09,14,43,6.40
2023,11,09,14,44,11.30
2023,11,09,14,45,8.10
2023,11,09,14,46,9.60
2023,11,09,14,47,11.30
2023,11,09,14,48,8.10
2023,11,09,14,49,8.10
2023,11,09,14,50,12.90
2023,11,09,14,51,9.60
2023,11,09,14,52,8.10
2023,11,09,14,53,8.10
2023,11,09,14,54,8.10
2023,11,09,14,55,6.40
2023,11,09,14,56,11.30
2023,11,09,14,57,11.30
2023,11,09,14,58,12.90
2023,11,09,14,59,9.60
2023,11,09,15,00,9.60
2023,11,09,15,01,8.10
2023,11,09,15,02,9.60
2023,11,09,15,03,6.40
2023,11,09,15,04,4.80
2023,11,09,15,05,14.50
2023,11,09,15,06,8.10
2023,11,09,15,07,6.40
2023,11,09,15,08,9.60
2023,11,09,15,09,8.10
2023,11,09,15,10,11.30
2023,11,09,15,11,9.60
2023,11,09,15,12,9.60
2023,11,09,15,13,8.10
2023,11,09,15,14,8.10
2023,11,09,15,15,8.10
2023,11,09,15,16,9.60
2023,11,09,15,17,3.20
2023,11,09,15,18,9.60
2023,11,09,15,19,6.40
2023,11,09,15,20,8.10
2023,11,09,15,21,11.30
2023,11,09,15,22,11.30
2023,11,09,15,23,9.60
2023,11,09,15,24,6.40
2023,11,09,15,25,6.40
2023,11,09,15,26,11.30
2023,11,09,15,27,12.90
2023,11,09,15,28,11.30
2023,11,09,15,29,8.10
2023,11,09,15,30,9.60
2023,11,09,15,31,11.30
2023,11,09,15,32,9.60
2023,11,09,15,33,8.10
2023,11,09,15,34,11.30
2023,11,09,15,35,6.40
2023,11,09,15,36,8.10
2023,11,09,15,37,9.60
2023,11,09,15,38,17.70
2023,11,09,15,39,11.30
2023,11,09,15,40,11.30
2023,11,09,15,41,8.10
2023,11,09,15,42,14.50
2023,11,09,15,43,11.30
2023,11,09,15,44,12.90
2023,11,09,15,45,11.30
2023,11,09,15,46,8.10
2023,11,09,15,47,9.60
2023,11,09,15,48,16.10
2023,11,09,15,49,11.30
2023,11,09,15,50,16.10
2023,11,09,15,51,14.50
2023,11,09,15,52,12.90
2023,11,09,15,53,19.30
2023,11,09,15,54,19.30
2023,11,09,15,55,16.10
2023,11,09,15,56,12.90
2023,11,09,15,57,11.30
2023,11,09,15,58,11.30
2023,11,09,15,59,9.60
2023,11,09,16,00,14.50
2023,11,09,16,01,16.10
2023,11,09,16,02,8.10
2023,11,09,16,03,16.10
2023,11,09,16,04,14.50
2023,11,09,16,05,6.40
2023,11,09,16,06,8.10
2023,11,09,16,07,11.30
2023,11,09,16,08,19.30
2023,11,09,16,09,14.50
2023,11,09,16,10,16.10
2023,11,09,16,11,14.50
2023,11,09,16,12,14.50
2023,11,09,16,13,11.30
2023,11,09,16,14,12.90
2023,11,09,16,15,14.50
2023,11,09,16,16,11.30
2023,11,09,16,17,9.60
2023,11,09,16,18,16.10
2023,11,09,16,19,9.60
2023,11,09,16,20,8.10
2023,11,09,16,21,8.10
2023,11,09,16,22,11.30
2023,11,09,16,23,11.30
2023,11,09,16,24,9.60
2023,11,09,16,25,9.60
2023,11,09,16,26,14.50
2023,11,09,16,27,8.10
2023,11,09,16,28,6.40
2023,11,09,16,29,6.40
2023,11,09,16,30,6.40
2023,11,09,16,31,4.80
2023,11,09,16,32,9.60
2023,11,09,16,33,3.20
2023,11,09,16,34,8.10
2023,11,09,16,35,6.40
2023,11,09,16,36,8.10
2023,11,09,16,37,6.40
2023,11,09,16,38,8.10
2023,11,09,16,39,11.30
2023,11,09,16,40,8.10
2023,11,09,16,41,6.40
2023,11,09,16,42,8.10
2023,11,09,16,43,8.10
2023,11,09,16,44,12.90
2023,11,09,16,45,6.40
2023,11,09,16,46,6.40
2023,11,09,16,47,11.30
2023,11,09,16,48,9.60
2023,11,09,16,49,6.40
2023,11,09,16,50,9.60
2023,11,09,16,51,14.50
2023,11,09,16,52,6.40
2023,11,09,16,53,16.10
2023,11,09,16,54,8.10
2023,11,09,16,55,9.60
2023,11,09,16,56,9.60
2023,11,09,16,57,6.40
2023,11,09,16,58,9.60
2023,11,09,16,59,9.60
2023,11,09,17,00,8.10
2023,11,09,17,01,6.40
2023,11,09,17,02,9.60
2023,11,09,17,03,6.40
2023,11,09,17,04,11.30
2023,11,09,17,05,9.60
2023,11,09,17,06,8.10
2023,11,09,17,07,9.60
2023,11,09,17,08,12.90
2023,11,09,17,09,9.60
2023,11,09,17,10,6.40
2023,11,09,17,11,8.10
2023,11,09,17,12,4.80
2023,11,09,17,13,8.10
2023,11,09,17,14,6.40
2023,11,09,17,15,8.10
2023,11,09,17,16,11.30
2023,11,09,17,17,8.10
2023,11,09,17,18,9.60
2023,11,09,17,19,8.10
2023,11,09,17,20,14.50
2023,11,09,17,21,12.90
2023,11,09,17,22,8.10
2023,11,09,17,23,8.10
2023,11,09,17,24,8.10
2023,11,09,17,25,4.80
2023,11,09,17,26,9.60
2023,11,09,17,27,8.10
2023,11,09,17,28,9.60
2023,11,09,17,29,12.90
2023,11,09,17,30,8.10
2023,11,09,17,31,8.10
2023,11,09,17,32,4.80
2023,11,09,17,33,8.10
2023,11,09,17,34,9.60
2023,11,09,17,35,12.90
2023,11,09,17,36,3.20
2023,11,09,17,37,8.10
2023,11,09,17,38,8.10
2023,11,09,17,39,9.60
2023,11,09,17,40,9.60
2023,11,09,17,41,9.60
2023,11,09,17,42,14.50
2023,11,09,17,43,19.30
2023,11,09,17,44,16.10
2023,11,09,17,45,14.50
2023,11,09,17,46,14.50
2023,11,09,17,47,11.30
2023,11,09,17,48,9.60
2023,11,09,17,49,9.60
2023,11,09,17,50,11.30
2023,11,09,17,51,12.90
2023,11,09,17,52,16.10
2023,11,09,17,53,14.50
2023,11,09,17,54,9.60
2023,11,09,17,55,11.30
2023,11,09,17,56,8.10
2023,11,09,17,57,4.80
2023,11,09,17,58,9.60
2023,11,09,17,59,6.40
2023,11,09,18,00,4.80